Radiation Dose at Monitoring Post of Fukushima Daini Nuclear Power Station
Date,Time,MP-1(microSv/h),MP-2(microSv/h),MP-3(microSv/h),MP-4(microSv/h),MP-5(microSv/h),MP-6(microSv/h),MP-7(microSv/h),Wind Direction,Wind Velocity(m/s),Rain
2016/04/01,00:00,0.471,0.268,0.491,0.435,0.397,0.220,0.195,northwest,1.1,No
2016/04/01,00:10,0.471,0.269,0.493,0.435,0.400,0.219,0.193,northwest,1.2,No
2016/04/01,00:20,0.470,0.269,0.492,0.435,0.399,0.220,0.193,north-northwest,1.4,No
2016/04/01,00:30,0.470,0.270,0.490,0.434,0.399,0.220,0.193,north,1.7,No
2016/04/01,00:40,0.471,0.269,0.491,0.434,0.398,0.220,0.194,north,1.9,No
2016/04/01,00:50,0.470,0.269,0.494,0.433,0.400,0.220,0.194,north,1.6,No
2016/04/01,01:00,0.471,0.270,0.491,0.434,0.399,0.220,0.193,north,1.9,No
2016/04/01,01:10,0.472,0.270,0.490,0.433,0.398,0.219,0.193,north,1.8,No
2016/04/01,01:20,0.471,0.270,0.492,0.433,0.398,0.220,0.194,north-northeast,1.9,No
2016/04/01,01:30,0.470,0.269,0.491,0.434,0.399,0.219,0.193,north-northwest,1.6,No
2016/04/01,01:40,0.470,0.271,0.490,0.433,0.399,0.220,0.193,north-northwest,1.1,No
2016/04/01,01:50,0.470,0.270,0.493,0.434,0.399,0.219,0.192,northwest,1.1,No
2016/04/01,02:00,0.469,0.270,0.492,0.434,0.397,0.220,0.193,north,2.2,No
2016/04/01,02:10,0.472,0.268,0.491,0.433,0.399,0.220,0.194,north-northwest,3.9,No
2016/04/01,02:20,0.471,0.272,0.493,0.437,0.399,0.219,0.194,north-northwest,4.1,No
2016/04/01,02:30,0.470,0.270,0.492,0.436,0.399,0.220,0.194,north-northwest,6.3,No
2016/04/01,02:40,0.471,0.271,0.490,0.435,0.399,0.220,0.194,north,8.2,No
2016/04/01,02:50,0.472,0.269,0.493,0.435,0.398,0.221,0.194,north,11.3,No
2016/04/01,03:00,0.471,0.270,0.491,0.436,0.401,0.221,0.194,north,9.9,No
2016/04/01,03:10,0.469,0.269,0.489,0.435,0.400,0.221,0.196,north,10.1,No
2016/04/01,03:20,0.473,0.271,0.493,0.434,0.397,0.220,0.194,north-northwest,9.3,No
2016/04/01,03:30,0.470,0.270,0.490,0.434,0.398,0.220,0.194,north,9.1,No
2016/04/01,03:40,0.470,0.269,0.491,0.434,0.399,0.220,0.193,north-northwest,8.8,No
2016/04/01,03:50,0.471,0.270,0.490,0.434,0.397,0.220,0.194,north,8.4,No
2016/04/01,04:00,0.469,0.270,0.491,0.436,0.398,0.220,0.194,north-northwest,9.4,No
2016/04/01,04:10,0.470,0.271,0.490,0.433,0.399,0.220,0.194,north-northwest,8.7,No
2016/04/01,04:20,0.473,0.270,0.492,0.433,0.399,0.220,0.194,north-northwest,9.2,No
2016/04/01,04:30,0.470,0.268,0.492,0.435,0.398,0.221,0.193,north-northwest,8.1,No
2016/04/01,04:40,0.471,0.270,0.490,0.432,0.399,0.220,0.193,north,8.3,No
2016/04/01,04:50,0.470,0.269,0.491,0.433,0.397,0.219,0.193,north,6.6,No
2016/04/01,05:00,0.469,0.270,0.492,0.434,0.397,0.219,0.193,north-northwest,5.3,No
2016/04/01,05:10,0.471,0.269,0.490,0.436,0.399,0.220,0.193,north-northwest,4.2,No
2016/04/01,05:20,0.473,0.271,0.490,0.433,0.397,0.220,0.194,north,5.3,No
2016/04/01,05:30,0.470,0.269,0.493,0.433,0.397,0.220,0.192,north,4.8,No
2016/04/01,05:40,0.469,0.269,0.491,0.435,0.399,0.219,0.193,north-northwest,3.1,No
2016/04/01,05:50,0.471,0.270,0.490,0.433,0.399,0.219,0.194,north,3.3,No
2016/04/01,06:00,0.468,0.269,0.494,0.433,0.397,0.220,0.193,north,5.6,No
2016/04/01,06:10,0.471,0.270,0.490,0.434,0.399,0.219,0.194,north,7.5,No
2016/04/01,06:20,0.471,0.269,0.490,0.434,0.398,0.219,0.193,north,8.1,No
2016/04/01,06:30,0.472,0.270,0.492,0.432,0.398,0.220,0.194,north,8.0,No
2016/04/01,06:40,0.471,0.270,0.490,0.433,0.399,0.220,0.193,north,7.5,No
2016/04/01,06:50,0.472,0.270,0.491,0.434,0.400,0.220,0.192,north,7.0,No
2016/04/01,07:00,0.470,0.272,0.492,0.432,0.398,0.220,0.192,north-northwest,6.2,No
2016/04/01,07:10,0.472,0.270,0.490,0.433,0.397,0.220,0.192,north-northwest,7.3,No
2016/04/01,07:20,0.471,0.270,0.492,0.434,0.399,0.219,0.191,north,7.1,No
2016/04/01,07:30,0.469,0.270,0.490,0.432,0.398,0.220,0.192,north-northwest,4.6,No
2016/04/01,07:40,0.470,0.270,0.487,0.435,0.399,0.219,0.192,north,5.3,No
2016/04/01,07:50,0.469,0.270,0.492,0.432,0.398,0.220,0.193,north,4.2,No
2016/04/01,08:00,0.470,0.270,0.489,0.433,0.398,0.221,0.192,north,3.9,No
2016/04/01,08:10,0.471,0.270,0.493,0.435,0.401,0.218,0.192,north,5.6,No
2016/04/01,08:20,0.467,0.271,0.490,0.431,0.397,0.220,0.193,north-northeast,6.4,No
2016/04/01,08:30,0.474,0.269,0.491,0.433,0.400,0.220,0.191,north-northeast,6.7,No
2016/04/01,08:40,0.468,0.269,0.491,0.432,0.397,0.220,0.193,north,6.4,No
2016/04/01,08:50,0.471,0.269,0.490,0.433,0.399,0.220,0.193,north-northeast,7.7,No
2016/04/01,09:00,0.466,0.268,0.492,0.431,0.399,0.220,0.193,north,7.5,No
2016/04/01,09:10,0.471,0.269,0.489,0.431,0.398,0.220,0.193,north,8.0,No
2016/04/01,09:20,0.469,0.269,0.493,0.433,0.401,0.219,0.194,north-northeast,9.1,No
2016/04/01,09:30,0.470,0.270,0.490,0.429,0.396,0.219,0.191,north-northeast,7.5,No
2016/04/01,09:40,0.469,0.268,0.491,0.435,0.401,0.219,0.194,north-northeast,8.1,No
2016/04/01,09:50,0.469,0.270,0.494,0.432,0.395,0.219,0.193,north-northeast,8.6,No
2016/04/01,10:00,0.468,0.269,0.490,0.430,0.400,0.220,0.193,north-northeast,6.7,No
2016/04/01,10:10,0.470,0.272,0.492,0.435,0.398,0.219,0.193,northeast,7.8,No
2016/04/01,10:20,0.468,0.269,0.489,0.430,0.400,0.221,0.193,northeast,8.2,No
2016/04/01,10:30,0.471,0.271,0.493,0.434,0.399,0.219,0.192,northeast,6.9,No
2016/04/01,10:40,0.471,0.269,0.488,0.434,0.400,0.219,0.193,north-northeast,7.5,No
2016/04/01,10:50,0.470,0.270,0.491,0.429,0.398,0.217,0.194,north-northeast,6.2,No
2016/04/01,11:00,0.469,0.268,0.489,0.435,0.399,0.218,0.192,north-northeast,7.0,No
2016/04/01,11:10,0.472,0.270,0.492,0.433,0.400,0.219,0.193,north-northeast,8.6,No
2016/04/01,11:20,0.473,0.270,0.490,0.437,0.403,0.220,0.193,north-northeast,8.1,No
2016/04/01,11:30,0.470,0.269,0.491,0.433,0.398,0.220,0.194,north-northeast,6.5,No
2016/04/01,11:40,0.473,0.270,0.491,0.439,0.402,0.220,0.194,northeast,7.3,No
2016/04/01,11:50,0.468,0.269,0.491,0.433,0.397,0.220,0.192,northeast,7.4,No
2016/04/01,12:00,0.473,0.270,0.490,0.437,0.403,0.219,0.194,north-northeast,6.6,No
2016/04/01,12:10,0.468,0.270,0.489,0.431,0.397,0.220,0.193,northeast,5.6,No
2016/04/01,12:20,0.469,0.270,0.490,0.437,0.402,0.219,0.193,northeast,6.9,No
2016/04/01,12:30,0.469,0.269,0.490,0.432,0.396,0.219,0.193,north-northeast,5.0,No
2016/04/01,12:40,0.472,0.269,0.489,0.435,0.401,0.219,0.193,north-northeast,4.8,No
2016/04/01,12:50,0.470,0.271,0.490,0.433,0.398,0.219,0.193,north-northeast,5.4,No
2016/04/01,13:00,0.470,0.270,0.492,0.437,0.400,0.220,0.195,north-northeast,6.4,No
2016/04/01,13:10,0.471,0.271,0.489,0.433,0.400,0.220,0.194,north-northeast,7.6,No
2016/04/01,13:20,0.471,0.269,0.494,0.436,0.400,0.219,0.193,northeast,6.1,No
2016/04/01,13:30,0.472,0.271,0.490,0.432,0.399,0.221,0.194,northeast,6.3,No
2016/04/01,13:40,0.469,0.269,0.494,0.436,0.400,0.220,0.194,northeast,6.4,No
2016/04/01,13:50,0.472,0.270,0.489,0.432,0.399,0.219,0.193,north-northeast,5.8,No
2016/04/01,14:00,0.470,0.272,0.493,0.436,0.400,0.220,0.193,north-northeast,6.1,No
2016/04/01,14:10,0.475,0.270,0.489,0.433,0.400,0.219,0.194,northeast,5.7,No
2016/04/01,14:20,0.469,0.270,0.494,0.437,0.399,0.220,0.192,north-northeast,3.6,No
2016/04/01,14:30,0.471,0.269,0.491,0.434,0.401,0.220,0.194,northeast,5.5,No
2016/04/01,14:40,0.469,0.270,0.493,0.436,0.398,0.219,0.195,northeast,4.6,No
2016/04/01,14:50,0.472,0.270,0.492,0.432,0.401,0.219,0.194,northeast,5.8,No
2016/04/01,15:00,0.473,0.270,0.490,0.436,0.396,0.220,0.194,northeast,6.7,No
2016/04/01,15:10,0.470,0.271,0.493,0.434,0.400,0.219,0.194,northeast,6.9,No
2016/04/01,15:20,0.473,0.270,0.490,0.433,0.401,0.219,0.193,northeast,5.7,No
2016/04/01,15:30,0.470,0.269,0.494,0.435,0.398,0.218,0.194,northeast,7.3,No
2016/04/01,15:40,0.472,0.270,0.490,0.433,0.402,0.220,0.194,northeast,5.8,No
2016/04/01,15:50,0.471,0.271,0.492,0.435,0.399,0.220,0.193,northeast,6.8,No
2016/04/01,16:00,0.471,0.271,0.490,0.434,0.399,0.220,0.194,northeast,6.4,No
2016/04/01,16:10,0.475,0.270,0.491,0.435,0.402,0.220,0.194,northeast,6.2,No
2016/04/01,16:20,0.471,0.272,0.493,0.434,0.399,0.219,0.194,northeast,6.9,No
2016/04/01,16:30,0.471,0.271,0.490,0.433,0.401,0.220,0.194,north-northeast,5.7,No
2016/04/01,16:40,0.471,0.269,0.494,0.436,0.399,0.220,0.194,northeast,4.2,No
2016/04/01,16:50,0.470,0.270,0.490,0.434,0.399,0.219,0.193,north-northeast,6.5,No
2016/04/01,17:00,0.472,0.271,0.493,0.435,0.400,0.220,0.194,north-northeast,6.5,No
2016/04/01,17:10,0.470,0.270,0.492,0.435,0.400,0.219,0.193,north-northeast,6.8,No
2016/04/01,17:20,0.471,0.270,0.489,0.433,0.399,0.220,0.193,northeast,5.0,No
2016/04/01,17:30,0.473,0.270,0.493,0.436,0.401,0.219,0.192,northeast,6.4,No
2016/04/01,17:40,0.470,0.270,0.491,0.435,0.399,0.219,0.194,northeast,4.7,No
2016/04/01,17:50,0.471,0.271,0.493,0.435,0.399,0.220,0.193,north-northeast,5.6,No
2016/04/01,18:00,0.471,0.271,0.492,0.436,0.401,0.220,0.192,northeast,5.4,No
2016/04/01,18:10,0.469,0.271,0.490,0.432,0.398,0.218,0.193,northeast,6.3,No
2016/04/01,18:20,0.472,0.270,0.492,0.437,0.400,0.220,0.193,northeast,7.0,No
2016/04/01,18:30,0.471,0.271,0.491,0.434,0.400,0.219,0.193,northeast,6.8,No
2016/04/01,18:40,0.471,0.270,0.493,0.436,0.397,0.220,0.194,northeast,6.3,No
2016/04/01,18:50,0.471,0.269,0.492,0.435,0.399,0.219,0.192,northeast,6.3,No
2016/04/01,19:00,0.471,0.270,0.489,0.434,0.399,0.218,0.193,north-northeast,6.1,No
2016/04/01,19:10,0.470,0.270,0.493,0.435,0.399,0.219,0.194,north-northeast,7.5,No
2016/04/01,19:20,0.469,0.269,0.491,0.433,0.399,0.219,0.193,north-northeast,7.5,No
2016/04/01,19:30,0.469,0.270,0.490,0.434,0.399,0.219,0.192,north-northeast,7.2,No
2016/04/01,19:40,0.472,0.269,0.493,0.437,0.398,0.219,0.193,north,5.7,No
2016/04/01,19:50,0.471,0.270,0.488,0.433,0.398,0.220,0.193,north-northeast,6.7,No
2016/04/01,20:00,0.471,0.270,0.492,0.434,0.399,0.218,0.194,north-northeast,6.8,No
2016/04/01,20:10,0.473,0.270,0.492,0.433,0.400,0.220,0.193,north-northeast,8.6,No
2016/04/01,20:20,0.470,0.269,0.490,0.433,0.400,0.219,0.194,north-northeast,9.3,No
2016/04/01,20:30,0.470,0.270,0.493,0.434,0.398,0.218,0.193,north-northeast,9.5,No
2016/04/01,20:40,0.471,0.271,0.491,0.435,0.398,0.219,0.194,north,8.9,No
2016/04/01,20:50,0.469,0.269,0.489,0.432,0.399,0.218,0.193,north,7.9,No
2016/04/01,21:00,0.470,0.269,0.491,0.436,0.398,0.218,0.193,north-northeast,7.1,No
2016/04/01,21:10,0.472,0.271,0.490,0.434,0.398,0.220,0.192,north-northeast,4.0,No
2016/04/01,21:20,0.469,0.270,0.491,0.433,0.399,0.219,0.193,north-northeast,3.4,No
2016/04/01,21:30,0.471,0.270,0.493,0.435,0.398,0.219,0.193,north-northeast,6.0,No
2016/04/01,21:40,0.471,0.272,0.488,0.434,0.396,0.220,0.193,north,4.9,No
2016/04/01,21:50,0.470,0.270,0.492,0.433,0.398,0.219,0.193,north,3.9,No
2016/04/01,22:00,0.470,0.269,0.492,0.435,0.399,0.219,0.194,north,3.7,No
2016/04/01,22:10,0.470,0.271,0.490,0.434,0.398,0.219,0.193,north,3.6,No
2016/04/01,22:20,0.469,0.271,0.491,0.433,0.398,0.219,0.193,north,7.3,No
2016/04/01,22:30,0.472,0.268,0.491,0.435,0.400,0.219,0.194,north,6.4,No
2016/04/01,22:40,0.470,0.270,0.490,0.433,0.398,0.219,0.193,north,4.3,No
2016/04/01,22:50,0.470,0.270,0.493,0.435,0.396,0.219,0.193,north-northwest,4.1,No
2016/04/01,23:00,0.472,0.269,0.492,0.435,0.399,0.218,0.194,north-northwest,5.2,No
2016/04/01,23:10,0.470,0.269,0.490,0.435,0.398,0.219,0.192,north-northwest,5.2,No
2016/04/01,23:20,0.469,0.271,0.493,0.434,0.399,0.219,0.193,north-northwest,5.1,No
2016/04/01,23:30,0.472,0.270,0.491,0.434,0.399,0.219,0.192,north-northwest,5.1,No
2016/04/01,23:40,0.470,0.270,0.491,0.432,0.398,0.219,0.194,north-northwest,5.6,No
2016/04/01,23:50,0.471,0.271,0.493,0.434,0.397,0.219,0.193,north-northwest,5.6,No
